Voltar ao catálogo

CSO 2

AtivoMilitarSSO
NORAD 47305·PAYLOAD·🇫🇷 France

Lançado Dec 29, 2020 de Guiana Space Centre

Loading…

Próximas Passagens (próximas 24 horas)

TLE

ObsoletoSource: Mike McCants

Época: Aug 16, 2026, 01:52 UTC

1 47305U 20104A   26228.07801686 0.00000000  00000-0  00000-0 0    05
2 47305  97.3522 167.8652 0002125  70.0965 289.9033 15.26904832    05

Acompanhe CSO 2 em tempo real com AllMySat

Download on the App Store